TimeEDT,TemperatureF,Dew PointF,Humidity,Sea Level PressureIn,VisibilityMPH,Wind Direction,Wind SpeedMPH,Gust SpeedMPH,PrecipitationIn,Events,Conditions,WindDirDegrees,DateUTC
12:53 AM,75.9,73.9,94,30.12,7.0,Calm,Calm,-,N/A,,Clear,0,2013-07-05 04:53:00
1:53 AM,77.0,71.1,82,30.12,10.0,SE,8.1,-,N/A,,Clear,140,2013-07-05 05:53:00
2:53 AM,75.0,72.0,90,30.08,10.0,East,3.5,-,N/A,,Clear,80,2013-07-05 06:53:00
3:53 AM,75.0,71.1,87,30.08,10.0,East,3.5,-,N/A,,Clear,100,2013-07-05 07:53:00
4:53 AM,75.0,71.1,87,30.07,10.0,East,4.6,-,N/A,,Clear,100,2013-07-05 08:53:00
5:53 AM,73.9,71.1,91,30.09,10.0,East,6.9,-,N/A,,Clear,100,2013-07-05 09:53:00
6:53 AM,73.9,71.1,91,30.07,10.0,NE,5.8,-,N/A,,Clear,50,2013-07-05 10:53:00
7:53 AM,75.0,72.0,90,30.09,10.0,East,6.9,-,N/A,,Clear,100,2013-07-05 11:53:00
8:53 AM,79.0,73.0,82,30.12,10.0,ESE,10.4,-,N/A,,Clear,110,2013-07-05 12:53:00
9:53 AM,82.9,75.0,77,30.11,10.0,East,11.5,-,N/A,,Partly Cloudy,100,2013-07-05 13:53:00
10:53 AM,84.9,73.9,69,30.10,10.0,ESE,12.7,19.6,N/A,,Mostly Cloudy,110,2013-07-05 14:53:00
11:22 AM,87.8,73.4,62,30.10,10.0,SE,12.7,20.7,N/A,,Mostly Cloudy,140,2013-07-05 15:22:00
11:53 AM,88.0,72.0,59,30.11,10.0,ESE,13.8,24.2,N/A,,Scattered Clouds,120,2013-07-05 15:53:00
12:53 PM,86.0,71.1,61,30.11,10.0,SSE,26.5,34.5,N/A,,Mostly Cloudy,160,2013-07-05 16:53:00
12:57 PM,80.6,71.6,74,30.11,1.2,SSE,24.2,34.5,0.00,Rain,Rain,150,2013-07-05 16:57:00
1:05 PM,75.2,73.4,94,30.12,0.2,SE,16.1,31.1,0.30,Fog-Rain,Heavy Rain,130,2013-07-05 17:05:00
1:14 PM,75.2,69.8,83,30.10,1.0,SSE,11.5,27.6,0.48,Rain,Heavy Rain,160,2013-07-05 17:14:00
1:22 PM,75.2,69.8,83,30.10,2.5,South,12.7,19.6,0.53,Rain,Rain,170,2013-07-05 17:22:00
1:29 PM,75.2,71.6,89,30.10,5.0,SSE,9.2,-,0.55,Rain,Light Rain,160,2013-07-05 17:29:00
1:53 PM,77.0,73.9,90,30.12,10.0,SE,5.8,-,0.55,Rain,Light Rain,130,2013-07-05 17:53:00
2:53 PM,81.0,73.9,79,30.10,10.0,SE,6.9,-,0.01,,Clear,140,2013-07-05 18:53:00
3:53 PM,84.9,73.0,67,30.07,10.0,SSE,9.2,16.1,N/A,,Clear,160,2013-07-05 19:53:00
4:53 PM,86.0,73.0,65,30.05,10.0,SE,9.2,-,N/A,,Partly Cloudy,140,2013-07-05 20:53:00
5:10 PM,82.4,75.2,79,30.04,1.8,East,16.1,23.0,0.01,Rain,Rain,90,2013-07-05 21:10:00
5:21 PM,78.8,75.2,89,30.05,3.0,ESE,6.9,-,0.14,Rain,Light Rain,120,2013-07-05 21:21:00
5:53 PM,79.0,75.0,88,30.06,8.0,SSE,4.6,-,0.14,Rain,Light Rain,160,2013-07-05 21:53:00
6:53 PM,78.1,75.0,90,30.06,10.0,Calm,Calm,-,0.00,,Clear,0,2013-07-05 22:53:00
7:53 PM,79.0,75.0,88,30.09,10.0,Calm,Calm,-,N/A,,Scattered Clouds,0,2013-07-05 23:53:00
8:42 PM,78.8,73.4,83,30.09,10.0,South,5.8,-,0.00,,Overcast,180,2013-07-06 00:42:00
8:53 PM,77.0,73.0,88,30.09,10.0,South,5.8,-,0.00,,Mostly Cloudy,170,2013-07-06 00:53:00
9:03 PM,78.8,73.4,83,30.09,10.0,Calm,Calm,-,N/A,,Scattered Clouds,0,2013-07-06 01:03:00
9:53 PM,75.9,71.1,85,30.11,10.0,Calm,Calm,-,N/A,,Mostly Cloudy,0,2013-07-06 01:53:00
10:53 PM,77.0,73.9,90,30.12,10.0,NE,4.6,-,N/A,,Clear,50,2013-07-06 02:53:00
11:53 PM,77.0,73.9,90,30.12,10.0,ENE,3.5,-,N/A,,Clear,70,2013-07-06 03:53:00